TimeMDT,TemperatureF,Dew PointF,Humidity,Sea Level PressureIn,VisibilityMPH,Wind Direction,Wind SpeedMPH,Gust SpeedMPH,PrecipitationIn,Events,Conditions,WindDirDegrees,DateUTC
12:15 AM,17.6,10.4,73,30.20,10.0,WNW,4.6,-,N/A,,Clear,300,2012-10-07 06:15:00
12:35 AM,17.6,8.6,68,30.20,10.0,NW,5.8,-,N/A,,Clear,320,2012-10-07 06:35:00
12:55 AM,15.8,8.6,73,30.21,10.0,WNW,5.8,-,N/A,,Clear,300,2012-10-07 06:55:00
1:15 AM,14.0,8.6,79,30.20,10.0,WNW,3.5,-,N/A,,Clear,290,2012-10-07 07:15:00
1:35 AM,14.0,8.6,79,30.20,10.0,WNW,5.8,-,N/A,,Clear,290,2012-10-07 07:35:00
1:55 AM,14.0,8.6,79,30.21,10.0,West,4.6,-,N/A,,Clear,260,2012-10-07 07:55:00
2:15 AM,14.0,8.6,79,30.21,10.0,Calm,Calm,-,N/A,,Clear,0,2012-10-07 08:15:00
2:35 AM,14.0,8.6,79,30.21,10.0,WNW,3.5,-,N/A,,Clear,300,2012-10-07 08:35:00
2:55 AM,12.2,6.8,79,30.21,10.0,West,5.8,-,N/A,,Clear,270,2012-10-07 08:55:00
3:15 AM,12.2,8.6,85,30.20,10.0,Calm,Calm,-,N/A,,Clear,0,2012-10-07 09:15:00
3:35 AM,12.2,6.8,79,30.19,10.0,Calm,Calm,-,N/A,,Clear,0,2012-10-07 09:35:00
3:55 AM,12.2,6.8,79,30.20,10.0,West,4.6,-,N/A,,Clear,260,2012-10-07 09:55:00
4:15 AM,12.2,6.8,79,30.20,10.0,West,3.5,-,N/A,,Clear,280,2012-10-07 10:15:00
4:35 AM,12.2,6.8,79,30.21,10.0,Calm,Calm,-,N/A,,Clear,0,2012-10-07 10:35:00
4:55 AM,12.2,8.6,85,30.21,10.0,West,3.5,-,N/A,,Clear,280,2012-10-07 10:55:00
5:15 AM,14.0,6.8,73,30.20,10.0,NNW,3.5,-,N/A,,Clear,340,2012-10-07 11:15:00
5:35 AM,12.2,5.0,73,30.21,10.0,NW,4.6,-,N/A,,Clear,310,2012-10-07 11:35:00
5:55 AM,12.2,5.0,73,30.20,10.0,Calm,Calm,-,N/A,,Clear,0,2012-10-07 11:55:00
6:15 AM,10.4,5.0,79,30.21,10.0,WNW,8.1,-,N/A,,Clear,300,2012-10-07 12:15:00
6:35 AM,10.4,3.2,73,30.21,10.0,NW,3.5,-,N/A,,Clear,310,2012-10-07 12:35:00
6:55 AM,10.4,6.8,85,30.21,10.0,West,6.9,-,N/A,,Clear,270,2012-10-07 12:55:00
7:15 AM,10.4,5.0,79,30.22,10.0,NW,4.6,-,N/A,,Clear,310,2012-10-07 13:15:00
7:35 AM,10.4,5.0,79,30.22,10.0,West,5.8,-,N/A,,Clear,280,2012-10-07 13:35:00
7:55 AM,12.2,6.8,79,30.22,10.0,NW,5.8,-,N/A,,Clear,310,2012-10-07 13:55:00
8:15 AM,17.6,10.4,73,30.22,10.0,NNW,4.6,-,N/A,,Clear,330,2012-10-07 14:15:00
8:35 AM,21.2,12.2,68,30.22,10.0,WNW,3.5,-,N/A,,Clear,300,2012-10-07 14:35:00
8:55 AM,23.0,12.2,63,30.23,10.0,West,5.8,-,N/A,,Clear,270,2012-10-07 14:55:00
9:15 AM,26.6,12.2,55,30.23,10.0,West,3.5,-,N/A,,Clear,280,2012-10-07 15:15:00
9:35 AM,30.2,14.0,51,30.23,10.0,Calm,Calm,-,N/A,,Clear,0,2012-10-07 15:35:00
9:55 AM,32.0,14.0,48,30.22,10.0,Calm,Calm,-,N/A,,Clear,0,2012-10-07 15:55:00
10:15 AM,33.8,12.2,41,30.22,10.0,Calm,Calm,-,N/A,,Clear,0,2012-10-07 16:15:00
10:35 AM,35.6,12.2,38,30.22,10.0,Calm,Calm,-,N/A,,Clear,0,2012-10-07 16:35:00
10:55 AM,37.4,12.2,36,30.21,10.0,NW,4.6,-,N/A,,Clear,320,2012-10-07 16:55:00
11:15 AM,37.4,14.0,38,30.21,10.0,NNW,3.5,-,N/A,,Clear,340,2012-10-07 17:15:00
11:35 AM,39.2,14.0,36,30.21,10.0,Calm,Calm,-,N/A,,Clear,0,2012-10-07 17:35:00
11:55 AM,41.0,14.0,33,30.20,10.0,NNW,4.6,-,N/A,,Clear,340,2012-10-07 17:55:00
12:15 PM,42.8,14.0,31,30.19,10.0,Calm,Calm,-,N/A,,Clear,0,2012-10-07 18:15:00
12:35 PM,42.8,14.0,31,30.19,10.0,West,6.9,-,N/A,,Clear,280,2012-10-07 18:35:00
12:55 PM,44.6,14.0,29,30.17,10.0,Calm,Calm,-,N/A,,Clear,0,2012-10-07 18:55:00
1:35 PM,46.4,12.2,25,30.15,10.0,West,10.4,16.1,N/A,,Clear,260,2012-10-07 19:35:00
1:55 PM,50.0,10.4,20,30.14,10.0,WNW,10.4,16.1,N/A,,Clear,300,2012-10-07 19:55:00
2:15 PM,50.0,10.4,20,30.13,10.0,NW,6.9,17.3,N/A,,Clear,310,2012-10-07 20:15:00
2:35 PM,51.8,8.6,18,30.13,10.0,West,9.2,16.1,N/A,,Clear,270,2012-10-07 20:35:00
2:55 PM,51.8,8.6,18,30.11,10.0,West,12.7,17.3,N/A,,Clear,270,2012-10-07 20:55:00
3:15 PM,53.6,8.6,16,30.11,10.0,West,9.2,16.1,N/A,,Clear,280,2012-10-07 21:15:00
3:35 PM,53.6,8.6,16,30.11,10.0,West,5.8,-,N/A,,Clear,270,2012-10-07 21:35:00
3:55 PM,53.6,6.8,15,30.11,10.0,WNW,12.7,16.1,N/A,,Clear,290,2012-10-07 21:55:00
4:15 PM,53.6,5.0,14,30.10,10.0,NW,8.1,17.3,N/A,,Clear,310,2012-10-07 22:15:00
4:35 PM,53.6,6.8,15,30.09,10.0,WNW,8.1,-,N/A,,Clear,300,2012-10-07 22:35:00
4:55 PM,55.4,6.8,14,30.09,10.0,West,10.4,-,N/A,,Clear,270,2012-10-07 22:55:00
5:15 PM,53.6,6.8,15,30.09,10.0,WNW,12.7,19.6,N/A,,Clear,300,2012-10-07 23:15:00
5:35 PM,51.8,10.4,19,30.09,10.0,WSW,5.8,-,N/A,,Clear,240,2012-10-07 23:35:00
5:55 PM,53.6,10.4,18,30.09,10.0,WSW,5.8,-,N/A,,Clear,240,2012-10-07 23:55:00
6:15 PM,51.8,8.6,18,30.09,10.0,NW,8.1,-,N/A,,Clear,310,2012-10-08 00:15:00
6:35 PM,50.0,8.6,19,30.09,10.0,NW,8.1,-,N/A,,Clear,310,2012-10-08 00:35:00
6:55 PM,44.6,8.6,23,30.10,10.0,NW,6.9,-,N/A,,Clear,310,2012-10-08 00:55:00
7:15 PM,42.8,10.4,27,30.11,10.0,WNW,8.1,-,N/A,,Clear,300,2012-10-08 01:15:00
7:35 PM,41.0,10.4,29,30.11,10.0,WNW,10.4,-,N/A,,Clear,290,2012-10-08 01:35:00
7:55 PM,37.4,10.4,33,30.12,10.0,WNW,8.1,-,N/A,,Clear,290,2012-10-08 01:55:00
8:15 PM,35.6,10.4,35,30.13,10.0,West,10.4,-,N/A,,Clear,280,2012-10-08 02:15:00
8:35 PM,35.6,10.4,35,30.13,10.0,WNW,6.9,-,N/A,,Clear,300,2012-10-08 02:35:00
8:55 PM,33.8,10.4,38,30.13,10.0,NNW,5.8,-,N/A,,Clear,340,2012-10-08 02:55:00
9:15 PM,32.0,10.4,41,30.13,10.0,WNW,8.1,-,N/A,,Scattered Clouds,290,2012-10-08 03:15:00
9:35 PM,32.0,12.2,44,30.13,10.0,WNW,8.1,-,N/A,,Clear,290,2012-10-08 03:35:00
9:55 PM,32.0,12.2,44,30.13,10.0,WNW,10.4,-,N/A,,Clear,290,2012-10-08 03:55:00
10:15 PM,30.2,12.2,47,30.13,10.0,West,9.2,-,N/A,,Clear,280,2012-10-08 04:15:00
10:35 PM,30.2,12.2,47,30.13,10.0,West,9.2,-,N/A,,Clear,280,2012-10-08 04:35:00
10:55 PM,30.2,12.2,47,30.13,10.0,West,9.2,-,N/A,,Clear,280,2012-10-08 04:55:00
11:15 PM,28.4,12.2,51,30.12,10.0,WNW,6.9,-,N/A,,Clear,300,2012-10-08 05:15:00
11:35 PM,28.4,12.2,51,30.11,10.0,West,5.8,-,N/A,,Clear,280,2012-10-08 05:35:00
11:55 PM,28.4,12.2,51,30.11,10.0,West,3.5,-,N/A,,Clear,260,2012-10-08 05:55:00